Theta_e
293 291 291 293 293 293 293 293 292 286 287 289 291 295 296 301 303 304 305 308 311 312 313 316 317 319 324 332 335 337 338 340 340 339 339 336 329 324
296 294 294 294 293 294 293 293 294 293 288 290 291 293 296 301 302 302 302 307 309 311 313 315 317 320 323 329 332 333 335 336 336 337 337 330 323 318
295 295 295 295 295 294 293 292 292 293 291 289 291 293 294 296 297 296 298 298 301 310 313 315 316 319 322 326 329 330 332 333 332 330 324 320 316 313
294 295 294 295 294 295 296 294 294 293 291 288 290 291 293 295 297 295 294 296 296 303 314 316 317 319 321 325 325 326 326 324 322 320 317 314 312 311
294 294 295 295 294 293 295 294 294 296 292 290 289 292 289 289 290 292 292 291 294 302 317 320 320 321 322 323 322 320 318 317 316 313 311 310 309 308
295 294 293 294 293 293 295 293 293 292 290 291 292 292 291 288 286 288 288 289 287 294 301 311 313 313 313 313 312 310 309 310 309 307 306 306 305 305
294 295 295 295 299 297 294 292 292 293 292 292 291 290 288 282 286 286 285 286 286 286 292 296 298 300 302 305 305 305 304 304 304 303 303 302 302 302
292 293 296 298 298 301 301 301 298 291 288 288 287 285 285 283 285 285 285 285 283 287 286 288 295 294 296 299 303 302 302 303 302 301 300 300 300 299
294 295 296 297 298 295 298 297 295 297 299 297 293 286 285 285 285 285 284 284 283 284 285 285 289 290 295 298 301 301 300 300 299 299 299 299 299 299
297 297 297 297 297 293 290 289 289 290 288 289 288 285 285 285 285 285 285 284 285 285 286 283 286 285 290 294 297 298 298 298 298 298 298 297 297 297
292 292 291 291 295 294 287 287 287 289 295 295 294 295 295 293 289 287 285 285 283 284 285 285 285 285 287 289 293 296 296 296 297 297 297 297 295 294
291 292 296 293 295 293 285 285 284 284 285 285 285 290 293 293 293 288 288 284 284 284 287 286 286 285 284 287 288 290 292 295 295 296 296 296 295 291
290 291 293 296 295 294 292 287 286 287 288 286 286 286 287 287 288 289 289 287 285 285 288 288 286 285 285 284 286 286 287 288 287 289 295 295 294 293
289 291 293 295 294 294 292 294 293 290 287 286 285 285 285 285 286 287 287 288 288 286 287 289 285 284 283 282 282 284 283 285 286 286 286 291 292 293
290 292 293 293 293 292 293 292 290 286 286 285 284 284 284 286 286 286 286 287 287 286 287 285 284 282 281 279 279 279 281 283 283 283 287 287 287 289
289 288 290 291 291 289 286 286 286 285 284 283 283 283 284 284 283 284 283 284 283 283 285 287 285 284 282 281 280 278 279 280 284 284 287 287 287 289
287 285 284 284 283 284 284 284 284 284 282 282 281 281 282 282 282 281 281 282 281 281 281 283 284 284 284 282 280 282 281 283 285 286 286 285 286 286
285 283 282 282 282 282 282 282 283 284 282 283 282 282 282 281 281 282 282 281 280 279 279 280 281 280 281 284 286 280 283 283 285 285 286 285 285 287
284 283 282 282 282 282 282 281 281 282 282 282 281 281 282 283 281 281 281 281 280 279 279 279 279 279 277 277 282 288 283 284 284 282 284 284 284 286
285 283 283 283 283 283 283 282 282 282 282 281 281 281 281 281 281 280 280 280 280 280 280 280 280 280 275 278 282 284 289 286 284 283 283 284 284 289
283 283 284 284 284 284 284 284 284 284 282 282 282 282 283 283 282 282 282 285 283 281 279 282 284 289 285 285 283 283 285 289 290 287 286 283 282 283
284 283 283 284 284 284 283 283 283 282 282 282 283 283 283 283 282 282 282 281 281 281 280 282 284 285 283 281 278 279 281 286 288 290 291 289 284 281
284 283 283 283 283 283 283 282 282 282 282 283 283 282 283 282 283 283 283 282 282 282 282 282 282 283 284 282 282 282 283 284 284 285 286 291 291 291
Wind_Speed
3 4 3 3 4 5 5 5 5 5 5 3 3 4 4 4 6 5 6 16 24 26 27 26 26 26 26 25 23 25 26 29 24 25 27 27 26 21
6 9 2 1 3 3 4 4 4 6 7 5 5 5 5 4 6 5 8 18 23 27 29 27 28 27 25 25 23 24 23 25 28 26 27 26 26 22
9 7 11 10 4 3 3 3 4 5 9 3 4 4 3 4 5 4 5 8 11 27 31 30 29 28 26 25 24 20 22 22 17 21 25 25 22 18
6 8 9 7 11 8 4 6 5 4 5 6 4 2 3 3 4 5 5 7 10 22 30 30 28 27 26 24 18 18 20 27 29 29 27 23 21 17
6 8 10 11 8 4 4 6 6 5 5 4 4 2 1 2 2 3 4 8 9 22 12 26 24 23 16 18 16 22 26 26 26 26 25 23 21 18
6 6 5 6 7 6 7 9 4 4 4 3 3 2 2 2 0 1 3 3 9 11 16 21 21 26 28 29 26 27 25 25 25 22 21 19 17 15
9 5 5 10 14 12 5 6 5 4 4 4 3 3 3 2 3 2 0 2 4 10 6 11 9 10 13 24 27 28 28 24 21 20 18 17 13 10
4 6 8 13 11 16 15 16 10 6 5 4 4 4 4 3 2 2 1 1 3 7 6 7 9 12 10 10 27 26 24 25 23 18 13 14 9 6
4 4 5 5 8 3 3 6 6 7 7 5 9 5 5 4 6 4 3 4 3 3 3 9 6 14 10 11 23 23 24 23 22 19 11 13 7 5
4 5 5 4 5 7 8 9 8 6 5 5 6 8 7 10 7 7 7 7 6 5 5 7 5 7 9 9 23 23 20 22 19 17 14 13 11 9
16 18 15 15 22 19 11 9 9 9 15 20 22 25 26 24 14 8 5 8 6 3 5 3 3 7 5 4 9 17 16 16 15 14 16 12 12 8
14 17 28 20 28 25 13 12 14 11 12 14 9 16 16 18 19 8 6 8 5 5 4 2 2 2 3 3 2 2 2 9 9 11 13 13 15 1
12 12 13 29 29 29 23 14 15 11 15 10 9 8 9 9 7 8 9 6 4 4 1 3 2 3 3 2 5 4 3 3 4 8 14 14 11 7
12 9 14 26 26 26 18 25 24 15 8 9 9 9 9 8 7 8 9 7 6 4 1 5 3 3 3 3 1 4 4 5 3 3 2 7 10 11
12 23 28 27 25 20 24 22 15 8 8 9 9 8 7 6 7 6 6 9 13 12 10 8 6 5 5 3 3 2 3 4 4 3 2 4 2 2
16 15 20 21 23 18 12 11 8 7 7 7 6 5 5 6 7 5 6 6 9 9 11 11 10 8 5 3 3 3 4 3 4 3 3 3 4 5
13 10 10 10 9 9 9 9 8 7 7 6 6 6 6 6 5 5 6 6 7 5 7 7 8 8 7 5 4 4 3 3 4 4 4 3 2 3
10 10 10 9 9 8 8 8 8 10 6 7 7 6 6 6 6 6 6 6 6 3 2 2 1 1 2 7 12 4 4 2 3 3 2 1 2 5
10 9 8 8 7 7 7 6 6 5 6 6 6 6 6 6 7 5 4 4 4 3 3 2 3 3 4 4 3 9 3 3 3 4 3 3 2 3
9 9 9 8 7 7 6 6 5 5 5 5 5 5 5 4 5 5 4 4 4 4 4 4 4 3 2 2 2 2 7 2 2 3 3 3 4 8
8 9 8 8 7 7 7 6 6 6 5 5 5 4 4 3 3 3 3 8 6 2 3 3 4 8 2 2 1 1 2 6 6 3 2 2 2 4
7 8 8 7 7 7 6 6 6 6 5 5 5 4 4 4 4 4 4 4 4 4 3 2 4 3 4 3 2 3 4 3 7 11 13 6 1 3
7 7 7 6 5 5 5 5 5 5 5 5 4 4 4 4 3 4 3 4 3 3 3 3 2 2 3 3 5 3 5 4 3 5 6 16 15 15
Wind_Direction
240 224 216 244 216 195 176 180 210 239 252 247 228 243 274 257 276 288 288 291 292 287 280 272 270 269 265 257 249 240 230 223 222 200 198 184 183 177
219 262 261 248 286 257 210 190 199 234 253 188 228 228 237 256 270 290 286 295 290 284 277 268 262 258 255 250 241 237 226 217 204 204 197 171 170 167
236 216 242 263 258 238 247 258 231 207 248 266 226 240 257 256 291 294 292 302 289 283 272 264 256 250 246 242 234 232 220 214 181 156 152 155 159 162
210 217 243 249 232 249 251 290 229 227 193 212 230 224 222 253 279 284 332 315 297 289 268 255 248 244 242 233 217 215 176 155 147 149 151 155 154 162
218 221 223 233 240 196 210 216 224 241 234 188 221 207 262 332 307 303 340 321 314 327 306 242 238 243 220 213 155 145 137 140 139 142 149 154 155 150
229 235 226 221 212 210 226 240 213 229 220 187 174 177 188 229 62 346 2 313 331 360 356 79 89 92 96 102 107 109 112 121 128 132 140 144 139 147
239 245 249 230 233 220 206 218 206 207 223 192 183 179 178 193 185 181 161 295 324 20 353 44 63 73 77 91 99 103 107 109 112 123 128 124 132 136
225 222 240 257 247 244 247 243 212 207 214 193 188 187 170 165 110 191 174 260 340 358 5 36 63 75 62 80 94 100 105 109 105 97 106 107 110 121
225 239 253 245 250 238 298 55 27 337 307 237 223 181 151 156 134 115 92 102 79 330 335 51 19 71 68 99 107 103 95 96 96 86 81 86 83 139
223 272 290 274 274 91 82 70 54 43 39 45 94 106 107 112 105 115 113 103 85 41 340 72 18 58 61 65 77 79 87 86 84 88 86 86 69 29
59 59 58 61 69 76 70 65 64 58 87 104 109 115 115 113 117 119 103 104 89 41 8 69 20 70 51 36 70 89 81 85 82 87 67 75 69 50
63 66 77 82 78 73 69 70 68 54 60 60 52 67 79 87 77 66 86 93 97 87 351 61 38 47 86 355 52 144 84 83 96 100 81 57 57 328
60 63 71 78 79 77 74 71 73 64 58 64 65 64 64 65 60 62 57 60 66 61 299 42 28 25 59 72 13 6 61 49 59 57 57 61 56 43
57 60 74 81 80 77 75 77 75 64 59 64 64 60 67 68 67 70 65 63 67 84 226 182 116 128 104 105 79 355 25 31 43 58 95 64 50 33
61 68 65 64 66 69 73 71 66 71 75 71 69 64 58 69 79 77 64 66 59 46 44 53 75 65 65 76 108 346 41 5 16 31 356 73 68 349
53 62 65 61 65 62 51 43 56 61 66 67 68 61 59 57 57 48 61 55 68 46 40 53 59 68 81 80 91 43 7 40 350 2 350 56 17 24
54 52 50 48 47 46 47 41 44 41 49 45 49 53 54 56 44 23 40 49 65 62 57 46 46 57 60 51 48 33 28 27 10 344 3 11 8 338
55 51 46 42 42 39 38 41 37 42 30 49 48 48 54 59 57 50 51 59 70 53 58 348 317 3 38 55 65 31 32 358 335 329 342 288 333 346
50 45 46 40 39 41 41 43 46 30 40 47 47 40 43 51 59 51 45 55 57 52 34 2 29 45 41 53 8 44 14 348 338 17 9 344 311 307
38 37 36 35 34 35 36 41 41 38 40 41 47 42 41 44 48 45 35 37 31 15 24 13 21 34 93 71 59 319 341 337 349 355 5 348 300 323
29 32 29 28 29 28 27 29 30 52 54 52 51 58 62 78 79 72 74 87 87 39 50 33 8 84 114 139 106 354 339 356 19 357 298 277 336 345
28 31 24 25 28 24 21 22 24 26 30 36 37 41 36 36 41 34 28 32 24 36 45 25 27 14 37 57 30 359 3 355 358 22 25 53 291 336
22 32 30 26 19 14 16 20 22 22 19 32 30 28 37 39 28 38 38 33 40 30 16 21 9 1 31 24 43 27 26 26 353 29 27 23 45 51